This is the latest recevied weather packets stored in our database for station/object SP1BMW-13. If no packets are shown the sender has not sent any weather packets the latest 1 day(s).
| Time | Temp. | Humidity | Pressure | Rain* | Wind** | Luminosity | Snow |
|---|---|---|---|---|---|---|---|
| 1778023067 | 10.56° C | 92% | 1007.5 hPa | 0 mm | 0.45 m/s, 26° | 0 W/m² | - |
| 1778023007 | 10.56° C | 92% | 1007.6 hPa | 0 mm | 0.89 m/s, 29° | 0 W/m² | - |
| 1778022947 | 10.56° C | 92% | 1007.6 hPa | 0 mm | 1.79 m/s, 36° | 0 W/m² | - |
| 1778022887 | 10.56° C | 92% | 1007.6 hPa | 0 mm | 0.89 m/s, 40° | 0 W/m² | - |
| 1778022827 | 10.56° C | 92% | 1007.8 hPa | 0 mm | 0.89 m/s, 334° | 0 W/m² | - |
| 1778022767 | 10.56° C | 92% | 1007.5 hPa | 0 mm | 0.45 m/s, 325° | 0 W/m² | - |
| 1778022707 | 10.56° C | 92% | 1007.7 hPa | 0 mm | 0.89 m/s, 64° | 0 W/m² | - |
| 1778022647 | 10.56° C | 92% | 1008 hPa | 0 mm | 0 m/s | 0 W/m² | - |
| 1778022587 | 10.56° C | 92% | 1007.8 hPa | 0 mm | 0.45 m/s, 17° | 0 W/m² | - |
| 1778022527 | 10.56° C | 92% | 1007.9 hPa | 0 mm | 0 m/s | 0 W/m² | - |
| 1778022467 | 10.56° C | 92% | 1007.7 hPa | 0 mm | 0 m/s | 0 W/m² | - |
| 1778022407 | 11.11° C | 92% | 1007.6 hPa | 0 mm | 0 m/s | 0 W/m² | - |
| 1778022347 | 11.11° C | 92% | 1007.7 hPa | 0 mm | 0.45 m/s, 68° | 0 W/m² | - |
| 1778022287 | 11.11° C | 92% | 1007.7 hPa | 0 mm | 1.79 m/s, 44° | 0 W/m² | - |
| 1778022226 | 11.11° C | 92% | 1007.9 hPa | 0 mm | 0.45 m/s, 17° | 0 W/m² | - |
| 1778022166 | 11.11° C | 92% | 1007.6 hPa | 0 mm | 0.89 m/s, 22° | 0 W/m² | - |
| 1778022106 | 11.11° C | 92% | 1007.8 hPa | 0 mm | 1.79 m/s, 28° | 0 W/m² | - |
| 1778022046 | 11.11° C | 92% | 1007.6 hPa | 0 mm | 1.34 m/s, 31° | 0 W/m² | - |
| 1778021986 | 11.11° C | 92% | 1007.7 hPa | 0 mm | 0.89 m/s, 29° | 0 W/m² | - |
| 1778021926 | 11.11° C | 92% | 1007.8 hPa | 0 mm | 0.45 m/s, 57° | 0 W/m² | - |
| 1778021866 | 11.11° C | 92% | 1007.7 hPa | 0 mm | 1.79 m/s, 31° | 0 W/m² | - |
| 1778021806 | 11.11° C | 92% | 1007.7 hPa | 0 mm | 1.34 m/s, 51° | 0 W/m² | - |
| 1778021747 | 11.11° C | 92% | 1007.7 hPa | 0 mm | 0.89 m/s, 43° | 0 W/m² | - |
| 1778021686 | 11.11° C | 92% | 1007.6 hPa | 0 mm | 0.45 m/s, 52° | 0 W/m² | - |
| 1778021626 | 11.11° C | 92% | 1007.6 hPa | 0 mm | 0 m/s | 0 W/m² | - |
* Rain latest hour (hover to see other rain measurements)
** Current wind speed in m/s (hover to see current wind gust speed)